Killeen/Ft Hood, TX

1:58 AM CDT on May 28, 2017 (GMT -0500)
Hood Army Air Field

Weather History for KHLR - March, 2014

Change the Weather History Date:

Tuesday, March 11, 2014

  Actual Average Record
Temperature  
Mean Temperature 74 °F -  
Max Temperature 88 °F 67 °F 88 °F (2014)
Min Temperature 59 °F 48 °F 32 °F (1998)
Cooling Degree Days 8    
Growing Degree Days 24 (Base 50)    
Moisture  
Dew Point 51 °F    
Average Humidity 58    
Maximum Humidity 87    
Minimum Humidity 16    
Precipitation  
Precipitation 0.01 in - - ()
Sea Level Pressure  
Sea Level Pressure 29.78 in    
Wind  
Wind Speed 9 mph (SSW)    
Max Wind Speed 21 mph    
Max Gust Speed 33 mph    
Visibility 10 miles    
Events Rain    
Averages and records for this station are not official NWS values.
T = Trace of Precipitation, MM = Missing Value Source: NWS Daily Summary

Daily Weather History Graph

Daily Weather History Graph

Search for Another Location

Airport or City:

Trip Planner

Search our weather history database for the weather conditions in past years. The results will help you decide how hot, cold, wet, or windy it might be!

Date:

Astronomy

Mar. 11, 2014 Rise Set
Actual Time 7:45 AM CDT 7:36 PM CDT
Civil Twilight 7:21 AM CDT 8:00 PM CDT
Nautical Twilight 6:53 AM CDT 8:28 PM CDT
Astronomical Twilight 6:25 AM CDT 8:56 PM CDT
Moon 3:27 PM CDT (3/11) 4:26 AM CDT (3/11)
Length of Visible Light 12h 38m
Length of Day
11h 50m
Waxing Gibbous, 78% of the Moon is Illuminated
Mar 11
Waxing Gibbous
Mar 16
Full
Mar 23
Last Quarter
Mar 30
New
Apr 7
First Quarter

Hourly Weather History & Observations

Time (CDT) Temp. Dew Point Humidity Pressure Visibility Wind Dir Wind Speed Gust Speed Precip Events Conditions
12:56 AM 60.1 °F 55.9 °F 86% 29.97 in 10.0 mi South 5.8 mph - 0.00 in   Overcast
1:56 AM 60.1 °F 55.9 °F 86% 29.94 in 10.0 mi South 8.1 mph - 0.00 in Rain Light Rain
2:34 AM 60.8 °F 55.4 °F 82% 29.85 in 10.0 mi SSE 4.6 mph - 0.01 in   Overcast
2:43 AM 60.8 °F 55.4 °F 82% 29.84 in 10.0 mi South 6.9 mph - 0.01 in   Overcast
2:56 AM 60.1 °F 55.9 °F 86% 29.92 in 10.0 mi SSE 6.9 mph - 0.01 in   Overcast
3:56 AM 59.0 °F 55.0 °F 87% 29.90 in 10.0 mi South 8.1 mph - N/A   Overcast
4:56 AM 59.0 °F 55.0 °F 87% 29.87 in 10.0 mi South 8.1 mph - N/A   Overcast
5:56 AM 59.0 °F 54.0 °F 83% 29.85 in 10.0 mi SSW 12.7 mph - N/A   Overcast
6:35 AM 59.0 °F 53.6 °F 82% 29.76 in 10.0 mi South 9.2 mph - N/A   Overcast
6:56 AM 59.0 °F 54.0 °F 83% 29.84 in 10.0 mi South 10.4 mph - N/A   Overcast
7:56 AM 59.0 °F 54.0 °F 83% 29.83 in 10.0 mi South 6.9 mph - N/A   Overcast
8:56 AM 60.1 °F 54.0 °F 80% 29.83 in 10.0 mi SSW 10.4 mph - N/A   Overcast
9:56 AM 61.0 °F 53.1 °F 75% 29.84 in 10.0 mi South 10.4 mph - N/A   Overcast
10:25 AM 64.4 °F 53.6 °F 68% 29.75 in 10.0 mi South 11.5 mph - N/A   Scattered Clouds
10:56 AM 66.9 °F 54.0 °F 63% 29.82 in 10.0 mi South 11.5 mph - N/A   Clear
11:56 AM 73.0 °F 54.0 °F 51% 29.81 in 10.0 mi SSW 9.2 mph - N/A   Clear
12:56 PM 75.9 °F 53.1 °F 45% 29.77 in 10.0 mi SSW 8.1 mph 20.7 mph N/A   Clear
1:56 PM 80.1 °F 48.9 °F 34% 29.73 in 10.0 mi SW 12.7 mph 17.3 mph N/A   Clear
2:56 PM 84.0 °F 44.1 °F 25% 29.67 in 10.0 mi SW 13.8 mph 21.9 mph N/A   Clear
3:56 PM 87.1 °F 42.1 °F 21% 29.65 in 10.0 mi SSW 17.3 mph - N/A   Clear
4:56 PM 88.0 °F 39.9 °F 18% 29.64 in 10.0 mi SSW 10.4 mph - N/A   Clear
5:56 PM 88.0 °F 36.0 °F 16% 29.63 in 10.0 mi SW 12.7 mph - N/A   Clear
6:56 PM 86.0 °F 39.0 °F 19% 29.64 in 10.0 mi SSW 9.2 mph - N/A   Clear
7:56 PM 75.9 °F 54.0 °F 46% 29.66 in 10.0 mi ESE 5.8 mph - N/A   Clear
8:56 PM 73.0 °F 54.0 °F 51% 29.68 in 10.0 mi SSE 5.8 mph - N/A   Clear
9:56 PM 73.0 °F 53.1 °F 49% 29.70 in 10.0 mi South 9.2 mph 16.1 mph N/A   Clear
10:56 PM 73.9 °F 52.0 °F 46% 29.73 in 10.0 mi WSW 11.5 mph - N/A   Clear
11:24 PM 75.2 °F 39.2 °F 27% 29.69 in 10.0 mi NW 19.6 mph 33.4 mph N/A   Clear
11:56 PM 73.0 °F 41.0 °F 31% 29.80 in 10.0 mi NNW 20.7 mph 28.8 mph N/A   Clear